FW8127 Weather Reports


Display with metric or nautical units.
time (UTC)temp
F
wind
direction
speed
MPH
gust
MPH
rain 1hr
in
rain 24hr
in
rain mn
in
humidity
%
barometer
mb
20260504185549 72 258 3.0 13.0 0.00 0.00 0.00 36 1011.8
20260504185049 72 284 5.0 14.0 0.00 0.00 0.00 36 1011.9
20260504184553 71 290 7.0 14.0 0.00 0.00 0.00 35 1011.9
20260504184050 72 288 4.0 13.0 0.00 0.00 0.00 35 1012.0
20260504183551 72 209 5.0 13.0 0.00 0.00 0.00 34 1012.0
20260504183054 72 301 4.0 11.0 0.00 0.00 0.00 36 1012.0
20260504182549 72 295 3.0 10.0 0.00 0.00 0.00 37 1012.2
20260504182049 72 220 4.0 10.0 0.00 0.00 0.00 37 1012.4
20260504181555 72 263 2.0 10.0 0.00 0.00 0.00 36 1012.4
20260504181049 71 275 3.0 11.0 0.00 0.00 0.00 36 1012.5
20260504180551 71 232 4.0 11.0 0.00 0.00 0.00 36 1012.6
20260504180051 71 269 4.0 11.0 0.00 0.00 0.00 38 1012.6
20260504175552 71 338 3.0 11.0 0.00 0.00 0.00 40 1012.6
20260504175049 71 259 4.0 9.0 0.00 0.00 0.00 37 1012.8
20260504174558 70 351 3.0 9.0 0.00 0.00 0.00 39 1012.8
20260504174049 70 263 3.0 10.0 0.00 0.00 0.00 37 1012.9
20260504173551 69 325 5.0 12.0 0.00 0.00 0.00 34 1012.8
20260504173052 69 321 6.0 12.0 0.00 0.00 0.00 35 1013.0
20260504172550 70 286 3.0 13.0 0.00 0.00 0.00 39 1013.0
20260504172050 69 324 5.0 13.0 0.00 0.00 0.00 38 1013.1
20260504171553 69 279 4.0 12.0 0.00 0.00 0.00 37 1013.2
20260504171051 69 211 3.0 12.0 0.00 0.00 0.00 39 1013.3
20260504170549 69 285 6.0 10.0 0.00 0.00 0.00 35 1013.3
20260504151049 65 281 4.0 9.0 0.00 0.00 0.00 46 1014.5
20260504150547 65 277 4.0 11.0 0.00 0.00 0.00 46 1014.5
20260504141049 62 277 4.0 10.0 0.00 0.00 0.00 55 1014.5
20260504140549 62 294 4.0 12.0 0.00 0.00 0.00 55 1014.5
20260504130622 59 284 6.0 13.0 0.00 0.00 0.00 59 1015.0
20260504110553 51 0 0.0 0.0 0.00 0.00 0.00 80 1015.7
20260504100548 49 0 0.0 5.0 0.00 0.00 0.00 80 1015.8
20260504081601 50 0 0.0 4.0 0.00 0.00 0.00 71 1015.9
20260504081048 50 0 0.0 4.0 0.00 0.00 0.00 71 1015.9
20260504080550 50 203 1.0 4.0 0.00 0.00 0.00 70 1015.9
20260504080105 50 200 0.0 4.0 0.00 0.00 0.00 70 1015.8
20260504060115 52 237 1.0 9.0 0.00 0.00 0.00 59 1015.6
20260504050550 52 254 3.0 9.0 0.00 0.00 0.00 55 1015.7
20260504050112 52 254 2.0 8.0 0.00 0.00 0.00 56 1015.8
20260504045549 52 212 2.0 8.0 0.00 0.00 0.00 56 1015.6
20260504045048 52 234 2.0 7.0 0.00 0.00 0.00 57 1015.7
20260504044553 52 304 2.0 6.0 0.00 0.00 0.00 57 1015.7
20260504044052 51 284 1.0 4.0 0.00 0.00 0.00 57 1015.7
20260504043548 51 261 1.0 6.0 0.00 0.00 0.00 58 1015.6
20260504043106 51 250 1.0 6.0 0.00 0.00 0.00 59 1015.5
20260504042548 51 274 1.0 4.0 0.00 0.00 0.00 60 1015.4
20260504042049 50 257 1.0 4.0 0.00 0.00 0.00 61 1015.3
20260504041549 50 0 0.0 3.0 0.00 0.00 0.00 61 1015.3
20260504041048 50 242 0.0 2.0 0.00 0.00 0.00 60 1015.1
20260504040547 50 0 0.0 4.0 0.00 0.00 0.00 61 1015.1
20260504040059 50 243 0.0 4.0 0.00 0.00 0.00 61 1015.1
20260504035549 49 248 0.0 3.0 0.00 0.00 0.00 63 1015.0
20260504035048 49 215 0.0 2.0 0.00 0.00 0.00 64 1015.1
20260504034557 49 0 0.0 2.0 0.00 0.00 0.00 64 1015.0
20260504034047 49 0 0.0 3.0 0.00 0.00 0.00 64 1014.9
20260504033548 49 215 1.0 3.0 0.00 0.00 0.00 64 1015.0
20260504033103 49 0 0.0 2.0 0.00 0.00 0.00 64 1014.9
20260504032548 49 0 1.0 2.0 0.00 0.00 0.00 64 1014.9
20260504032050 49 215 0.0 2.0 0.00 0.00 0.00 64 1014.8
20260504031558 49 0 0.0 1.0 0.00 0.00 0.00 63 1014.8
20260504031048 49 0 0.0 2.0 0.00 0.00 0.00 63 1014.7
20260504030548 49 0 0.0 2.0 0.00 0.00 0.00 62 1014.6
20260504030054 49 215 0.0 2.0 0.00 0.00 0.00 62 1014.8
20260504025548 49 0 0.0 1.0 0.00 0.00 0.00 62 1014.9
20260504025049 49 0 0.0 1.0 0.00 0.00 0.00 61 1014.9
20260504024601 50 0 0.0 1.0 0.00 0.00 0.00 61 1014.8
20260504024048 50 0 0.0 2.0 0.00 0.00 0.00 61 1014.8
20260504023548 50 0 0.0 2.0 0.00 0.00 0.00 60 1014.8
20260504023059 50 0 0.0 2.0 0.00 0.00 0.00 60 1015.0
20260504022546 50 0 0.0 2.0 0.00 0.00 0.00 59 1014.9
20260504022047 50 0 0.0 1.0 0.00 0.00 0.00 59 1014.9
20260504021553 51 0 0.0 2.0 0.00 0.00 0.00 58 1014.9
20260504021048 51 0 0.0 2.0 0.00 0.00 0.00 57 1014.9
20260504020548 51 217 0.0 2.0 0.00 0.00 0.00 58 1015.0
20260504020052 51 0 0.0 3.0 0.00 0.00 0.00 57 1015.0
20260504015548 51 0 0.0 3.0 0.00 0.00 0.00 57 1015.0
20260504015048 51 0 0.0 3.0 0.00 0.00 0.00 56 1015.0
20260504014558 52 0 0.0 3.0 0.00 0.00 0.00 56 1014.9
20260504014049 52 217 0.0 1.0 0.00 0.00 0.00 55 1014.8
20260504013548 52 0 0.0 2.0 0.00 0.00 0.00 54 1014.7
20260504013105 52 0 0.0 2.0 0.00 0.00 0.00 54 1014.7
20260504012548 53 0 0.0 2.0 0.00 0.00 0.00 54 1014.7
20260504012048 53 0 0.0 2.0 0.00 0.00 0.00 52 1014.6
20260504011553 54 215 0.0 3.0 0.00 0.00 0.00 52 1014.6
20260504011047 54 215 0.0 3.0 0.00 0.00 0.00 51 1014.6
20260504010548 55 215 1.0 3.0 0.00 0.00 0.00 50 1014.5
20260504010111 55 251 1.0 3.0 0.00 0.00 0.00 50 1014.5
20260504005547 56 255 1.0 4.0 0.00 0.00 0.00 49 1014.4
20260504005048 57 257 1.0 6.0 0.00 0.00 0.00 48 1014.3
20260504004553 57 275 0.0 6.0 0.00 0.00 0.00 46 1014.4
20260504004051 58 276 2.0 9.0 0.00 0.00 0.00 45 1014.2
20260504003548 58 262 1.0 9.0 0.00 0.00 0.00 45 1014.2
20260504003055 58 251 3.0 9.0 0.00 0.00 0.00 44 1014.0
20260504002547 58 271 1.0 6.0 0.00 0.00 0.00 44 1014.0
20260504002048 58 0 1.0 6.0 0.00 0.00 0.00 42 1013.8
20260504001601 58 284 2.0 6.0 0.00 0.00 0.00 42 1013.9
20260504001048 58 0 1.0 6.0 0.00 0.00 0.00 41 1013.7
20260504000550 58 0 1.0 6.0 0.00 0.00 0.00 40 1013.8
20260504000057 59 275 1.0 6.0 0.00 0.00 0.00 39 1013.8
20260503235551 59 263 1.0 8.0 0.00 0.00 0.00 39 1013.7
20260503235048 59 263 2.0 8.0 0.00 0.00 0.00 37 1013.8
20260503234556 59 302 3.0 8.0 0.00 0.00 0.00 38 1013.7
20260503234048 59 299 3.0 8.0 0.00 0.00 0.00 38 1013.6
20260503233548 60 270 2.0 9.0 0.00 0.00 0.00 37 1013.8
20260503233100 60 269 4.0 9.0 0.00 0.00 0.00 37 1013.8
20260503232550 60 255 2.0 11.0 0.00 0.00 0.00 36 1013.7
20260503232050 60 313 2.0 11.0 0.00 0.00 0.00 36 1013.7
20260503231552 61 360 5.0 13.0 0.00 0.00 0.00 36 1013.7
20260503231050 61 277 5.0 13.0 0.00 0.00 0.00 35 1013.7
20260503230549 61 348 3.0 13.0 0.00 0.00 0.00 38 1013.5
20260503230055 61 337 4.0 13.0 0.00 0.00 0.00 34 1013.6
20260503225549 61 286 6.0 11.0 0.00 0.00 0.00 35 1013.5
20260503225048 61 5 4.0 10.0 0.00 0.00 0.00 36 1013.5
20260503224552 61 338 2.0 11.0 0.00 0.00 0.00 34 1013.5
20260503224048 62 348 2.0 11.0 0.00 0.00 0.00 35 1013.6
20260503223548 62 309 4.0 11.0 0.00 0.00 0.00 34 1013.5
20260503223051 62 252 2.0 10.0 0.00 0.00 0.00 35 1013.5
20260503222548 61 309 3.0 11.0 0.00 0.00 0.00 35 1013.5
20260503222047 61 346 4.0 11.0 0.00 0.00 0.00 32 1013.5
20260503221600 61 169 4.0 11.0 0.00 0.00 0.00 35 1013.5
20260503221051 61 279 5.0 12.0 0.00 0.00 0.00 34 1013.5
20260503220552 61 346 7.0 12.0 0.00 0.00 0.00 34 1013.6
20260503220105 61 250 4.0 12.0 0.00 0.00 0.00 32 1013.5
20260503215551 61 319 5.0 12.0 0.00 0.00 0.00 34 1013.5
20260503215050 61 360 7.0 15.0 0.00 0.00 0.00 30 1013.5
20260503214554 61 248 5.0 15.0 0.00 0.00 0.00 35 1013.5
20260503214054 61 352 7.0 15.0 0.00 0.00 0.00 34 1013.5
20260503213552 61 360 6.0 13.0 0.00 0.00 0.00 35 1013.5
20260503213052 61 341 6.0 12.0 0.00 0.00 0.00 34 1013.5
20260503212551 61 292 3.0 11.0 0.00 0.00 0.00 33 1013.3
20260503212050 61 344 4.0 12.0 0.00 0.00 0.00 35 1013.4
20260503211551 61 308 4.0 15.0 0.00 0.00 0.00 34 1013.6
20260503211050 61 5 5.0 15.0 0.00 0.00 0.00 35 1013.6
20260503210550 61 302 6.0 15.0 0.00 0.00 0.00 34 1013.4
20260503210056 60 338 6.0 15.0 0.00 0.00 0.00 35 1013.4
20260503205552 60 352 7.0 14.0 0.00 0.00 0.00 34 1013.5
20260503205050 60 5 7.0 15.0 0.00 0.00 0.00 37 1013.7
20260503204602 60 5 7.0 16.0 0.00 0.00 0.00 34 1013.7
20260503204049 60 317 7.0 16.0 0.00 0.00 0.00 34 1013.6
20260503203550 60 5 9.0 17.0 0.00 0.00 0.00 35 1013.6
20260503203105 60 360 5.0 17.0 0.00 0.00 0.00 35 1013.7
20260503202552 60 5 5.0 17.0 0.00 0.00 0.00 36 1013.6
20260503202052 60 352 6.0 14.0 0.00 0.00 0.00 38 1013.8
20260503201554 60 5 6.0 16.0 0.00 0.00 0.00 37 1013.8
20260503201049 60 328 4.0 16.0 0.00 0.00 0.00 35 1013.8
20260503200550 60 280 5.0 14.0 0.00 0.00 0.00 36 1013.8
20260503200051 59 348 7.0 14.0 0.00 0.00 0.00 34 1014.0
20260503195550 60 9 8.0 13.0 0.00 0.00 0.00 37 1014.0
20260503195050 60 341 6.0 14.0 0.00 0.00 0.00 38 1014.0
20260503194607 59 352 6.0 18.0 0.00 0.00 0.00 38 1013.9
20260503194050 59 334 9.0 18.0 0.00 0.00 0.00 36 1013.9
20260503193550 59 208 7.0 18.0 0.00 0.00 0.00 37 1013.8
20260503193050 59 328 8.0 18.0 0.00 0.00 0.00 37 1014.0
20260503192550 59 346 9.0 15.0 0.00 0.00 0.00 37 1014.1
20260503192049 59 333 8.0 16.0 0.00 0.00 0.00 35 1014.1
20260503191558 59 343 7.0 16.0 0.00 0.00 0.00 38 1014.1
20260503191050 59 5 8.0 16.0 0.00 0.00 0.00 38 1014.1
20260503190549 59 341 7.0 16.0 0.00 0.00 0.00 38 1014.2
20260503190059 59 338 7.0 15.0 0.00 0.00 0.00 37 1014.2